• Join FlightAware (Why Join?)
  • Login
  • US Flag 
03:02AM EDT


 

Airport Tracker/Info


-or-


 

Live Flight TrackerFlight Track Log ✈ EGF4086 ✈ 11-Jun-2013 ✈ KROC - KORD

Flight Track Log - Related Links

Times and Time Zones

All times are in EDT time to prevent confusion due to time zone crossing. See the EGF4086 flight status page for this flight to view local times or setup timezone preferences in your user account.

Time Position Orientation Groundspeed Altitude Reporting Facility
EDT Latitude Longitude Course Direction KTS MPH feet Rate Location/Type
03:23PM 43.1357 -77.9025 280° West  Level FlightAware Approximate
03:23PM 43.0258 -77.7544 265° West 230 265 4,400  Level Cleveland Center
03:24PM 43.1500 -78.0208 270° West  Level FlightAware Approximate
03:24PM 43.0358 -77.8250 281° West 211 243 6,800  Level Cleveland Center
03:25PM 43.1607 -78.1399 278° West  Level FlightAware Approximate
03:25PM 43.0586 -77.9094 290° West 217 250 8,500  Level Cleveland Center
03:26PM 43.1750 -78.2582 281° West  Level FlightAware Approximate
03:26PM 43.0794 -77.9994 288° West 236 272 10,400  Level Cleveland Center
03:27PM 43.1919 -78.3761 281° West  Level FlightAware Approximate
03:27PM 43.0819 -78.1044 272° West 261 300 12,000  Level Cleveland Center
03:28PM 43.1984 -78.4950 265° West  Level FlightAware Approximate
03:28PM 43.0800 -78.2211 269° West 284 327 13,600  Level Cleveland Center
03:29PM 43.0806 -78.3433 270° West 313 360 14,700 960 Climbing Cleveland Center
03:30PM 43.0808 -78.4742 270° West 328 377 15,600 960 Climbing Cleveland Center
03:31PM 43.0789 -78.6078 269° West 347 399 16,700 1,440 Climbing Cleveland Center
03:32PM 43.0769 -78.7386 269° West 352 405 18,500 1,860 Climbing Cleveland Center
03:33PM 43.0789 -78.8608 271° West 342 394 20,400 1,680 Climbing Cleveland Center
03:34PM 43.0667 -78.9667 261° West 330 380 22,200 1,500 Climbing Toronto Center
03:35PM 43.0667 -79.1167 270° West 330 380 23,700 1,500 Climbing Toronto Center
03:36PM 43.0667 -79.2167 270° West 320 368 25,200 1,380 Climbing Toronto Center
03:37PM 43.0667 -79.3667 270° West 320 368 26,500 1,020 Climbing Toronto Center
03:38PM 43.0667 -79.4667 270° West 330 380 27,300 720 Climbing Toronto Center
03:39PM 43.0667 -79.6167 270° West 340 391 28,000 300 Climbing Toronto Center
03:40PM 43.0500 -79.7500 260° West 350 403 28,000  Level Toronto Center
03:41PM 43.0500 -79.8833 270° West 370 426 28,000  Level Toronto Center
03:42PM 43.0500 -80.0167 270° West 380 437 28,000  Level Toronto Center
03:43PM 43.0500 -80.1833 270° West 390 449 28,000  Level Toronto Center
03:44PM 43.0500 -80.3167 270° West 390 449 28,000  Level Toronto Center
03:45PM 43.0500 -80.4833 270° West 390 449 28,000  Level Toronto Center
03:46PM 43.0500 -80.6333 270° West 400 460 28,000  Level Toronto Center
03:47PM 43.0500 -80.7667 270° West 400 460 28,000  Level Toronto Center
03:48PM 43.0167 -80.9333 255° West 400 460 28,000  Level Toronto Center
03:49PM 43.0167 -81.1000 270° West 400 460 28,000  Level Toronto Center
03:50PM 43.0167 -81.2333 270° West 400 460 28,000  Level Toronto Center
03:51PM 43.0167 -81.3833 270° West 400 460 28,000  Level Toronto Center
03:52PM 43.0167 -81.5500 270° West 400 460 28,000  Level Toronto Center
03:53PM 43.0167 -81.7000 270° West 400 460 28,000  Level Toronto Center
03:54PM 43.0167 -81.8500 270° West 400 460 28,000  Level Toronto Center
03:55PM 43.0000 -82.0000 261° West 400 460 28,000  Level Toronto Center
03:56PM 43.0000 -82.1667 270° West 400 460 28,000  Level Toronto Center
03:57PM 43.0000 -82.3000 270° West 410 472 28,000  Level Toronto Center
03:58PM 43.0000 -82.4667 270° West 410 472 28,000  Level Toronto Center
03:59PM 43.0000 -82.6167 270° West 410 472 28,000  Level Toronto Center
03:59PM 43.0028 -82.7322 272° West 402 463 28,000  Level Cleveland Center
04:00PM 42.9958 -82.8853 267° West 407 468 28,000  Level Cleveland Center
04:01PM 42.9842 -83.0408 264° West 407 468 28,000  Level Cleveland Center
04:02PM 42.9767 -83.1967 266° West 407 468 28,000  Level Cleveland Center
04:03PM 42.9667 -83.3525 265° West 407 468 28,000  Level Cleveland Center
04:04PM 42.9544 -83.5108 264° West 413 475 28,000  Level Cleveland Center
04:05PM 42.9442 -83.6636 265° West 413 475 28,000  Level Cleveland Center
04:06PM 42.9317 -83.8217 264° West 413 475 28,000  Level Cleveland Center
04:07PM 42.9208 -83.9769 265° West 420 483 28,000  Level Cleveland Center
04:09PM 42.9031 -84.2342 265° West 416 479 28,000  Level Chicago Center
04:10PM 42.8908 -84.3889 264° West 413 475 28,000  Level Chicago Center
04:11PM 42.8792 -84.5453 264° West 414 476 28,000  Level Chicago Center
04:12PM 42.8672 -84.7000 264° West 412 474 28,000  Level Chicago Center
04:13PM 42.8553 -84.8544 264° West 411 473 28,000  Level Chicago Center
04:14PM 42.8408 -85.0092 263° West 411 473 28,000 -300 Level Chicago Center
04:15PM 42.8197 -85.1953 261° West 414 476 27,400 -960 Descending Chicago Center
04:16PM 42.8031 -85.3517 262° West 415 478 26,000 -1,380 Descending Chicago Center
04:17PM 42.7850 -85.5092 261° West 419 482 24,600 -1,380 Descending Chicago Center
04:18PM 42.7572 -85.6597 256° West 413 475 23,200 -1,380 Descending Chicago Center
04:19PM 42.7314 -85.8056 256° West 400 460 21,800 -1,260 Descending Chicago Center
04:20PM 42.7058 -85.9469 256° West 388 447 20,600 -900 Descending Chicago Center
04:22PM 42.6800 -86.0864 256° West 381 438 20,000 -300 Descending Chicago Center
04:23PM 42.6497 -86.2536 256° West 379 436 20,000  Level Chicago Center
04:24PM 42.6228 -86.3914 255° West 377 434 20,000 -300 Level Chicago Center
04:25PM 42.5967 -86.5311 256° West 379 436 19,400 -1,440 Descending Chicago Center
04:26PM 42.5719 -86.6639 256° West 366 421 17,000 -2,400 Descending Chicago Center
04:27PM 42.5453 -86.7894 254° West 352 405 14,500 -2,220 Descending Chicago Center
04:28PM 42.5106 -86.9111 249° West 346 398 12,500 -1,980 Descending Chicago Center
04:29PM 42.4764 -87.0372 250° West 354 407 10,500 -1,440 Descending Chicago Center
04:30PM 42.4406 -87.1642 249° West 294 338 9,600 -780 Descending Chicago Center
04:31PM 42.3753 -87.2153 210° Southwest 298 343 9,000 -360 Descending Chicago Center
04:32PM 42.2947 -87.2386 192° South 304 350 8,900 -360 Descending Chicago Center
04:33PM 42.2142 -87.2619 192° South 299 344 8,300 -780 Descending Chicago Center
04:34PM 42.1208 -87.2911 193° South 288 331 7,300 -660 Descending Chicago Center
04:35PM 42.0467 -87.3142 193° South 278 320 7,000 -180 Descending Chicago Center
04:36PM 41.9894 -87.3739 218° Southwest 282 325 7,000 -60 Level Chicago Center
04:37PM 41.9814 -87.4653 263° West 257 296 6,900 -720 Descending Chicago Center
04:38PM 41.9836 -87.5553 272° West 245 282 5,500 -1,380 Descending Chicago Center